Find Kosmos-678

NORAD ID: 7436 Int'l Des: 1974-072 Owner: GUKOSR Country: SU operational
LEOCIRCULAR

Live Position

Loading 3D Globe...

About Kosmos-678

Description loading...

Upcoming Passes

Passes for default location (London). Set your location on the main map for personalized predictions.

Altitude History

Loading altitude history...

Two-Line Element Set

1 7436U 74072B 26106.68690992 -.00000024 00000-0 -63310-4 0 9999
2 7436 74.0342 73.5561 0040974 100.7948 71.8081 12.41799559337967
Epoch: Apr 16, 2026 • Age: 15 hours

Current Status

Altitude 1493.7 km
Velocity 7.12 km/s
Sub-Earth Point 22.06°N, 126.68°E
Type other

Most Searched